Miscellaneous Local Product
Issued by NWS Hastings, NE

Home | Current Version | Previous Version | Graphics & Text | Print | Product List | Glossary On
Versions: 1 2 3 4 5 6 7 8 9 10 11 12 13 14 15 16 17 18 19 20 21 22 23 24 25 26 27 28 29 30 31 32 33 34 35 36 37 38 39 40 41 42 43 44 45 46 47 48 49 50
000
AXUS43 KGID 260002
MISGRI

GID CWA HOURLY WEATHER ROUNDUP
NATIONAL WEATHER SERVICE HASTINGS NE
700 PM CDT SAT APR 25 2015

NOTE: "FAIR" INDICATES FEW OR NO CLOUDS BELOW 12,000 FEET WITH NO
SIGNIFICANT WEATHER AND/OR OBSTRUCTIONS TO VISIBILITY.

...SOUTH CENTRAL NEBRASKA...

CITY           SKY/WX    TMP DP  RH WIND       PRES   REMARKS
GRAND ISLAND   CLOUDY    51  47  86 NE12      29.79S
HASTINGS       CLOUDY    50  47  89 NE13      29.77R FOG
KEARNEY        CLOUDY    52  46  82 NE12      29.78R
ORD            CLOUDY    56  45  66 E12       29.78R
YORK           CLOUDY    50  48  93 NE10      29.79R
AURORA         CLOUDY    50  49  95 NE10      29.79R
LEXINGTON      SUNNY     56  49  77 E15       29.76R
HOLDREGE       CLOUDY    52  47  84 NE13      29.76R
HEBRON         CLOUDY    51  47  87 NE9       29.76S

...NEBRASKA PANHANDLE...

CITY           SKY/WX    TMP DP  RH WIND       PRES   REMARKS
CHADRON        CLOUDY    54  45  71 NE14      29.69F
ALLIANCE       LGT RAIN  52  47  83 S8        29.72R
SCOTTSBLUFF    CLOUDY    60  39  45 W15       29.72R
SIDNEY         CLOUDY    54  47  77 NW10      29.74R

...WESTERN AND NORTH CENTRAL NEBRASKA...

CITY           SKY/WX    TMP DP  RH WIND       PRES   REMARKS
VALENTINE      PTSUNNY   59  46  62 E18       29.76R
AINSWORTH      CLOUDY    55  47  74 E14       29.78S
ONEILL         CLOUDY    58  46  63 E6        29.80R
BROKEN BOW     CLOUDY    56  46  69 E10       29.77R
IMPERIAL       MOSUNNY   68  44  42 E12       29.69R
NORTH PLATTE   NOT AVBL
MCCOOK         MOSUNNY   64  51  62 E14       29.72R

...EASTERN NEBRASKA...

CITY           SKY/WX    TMP DP  RH WIND       PRES   REMARKS
NORFOLK        PTSUNNY   55  44  66 E9        29.80R
SO SIOUX CITY  PTSUNNY   57  41  55 E13       29.82R
TEKAMAH        CLOUDY    56  46  69 E12       29.80R
COLUMBUS       CLOUDY    52  41  66 NE12      29.82R
ALBION         CLOUDY    55  44  67 E13       29.80R
OMAHA EPPLEY   CLOUDY    52  45  77 NE8       29.80R
OFFUTT AFB     CLOUDY    51  46  81 NE8       29.78R
MILLARD        CLOUDY    52  45  76 NE8       29.79R
LINCOLN        CLOUDY    52  46  80 NE15      29.79R
NEBRASKA CITY  CLOUDY    49  46  90 NE12      29.78R
BEATRICE       CLOUDY    51  47  86 NE14      29.76R FOG
FALLS CITY     CLOUDY    50  45  83 NE10      29.75R

...NORTHERN KANSAS...

CITY           SKY/WX    TMP DP  RH WIND       PRES   REMARKS
GOODLAND       MOSUNNY   69  43  38 E10       29.69F
HILL CITY      PTSUNNY   63  52  67 E15       29.72S
NORTON         PTCLDY    57  46  67 NE13G22   29.73R
PHILLIPSBURG   CLOUDY    61  52  72 NE13      29.74S
SMITH CENTER   PTSUNNY   54  48  82 NE12      29.76R
HAYS           SUNNY     64  48  55 NE15      29.71R
RUSSELL        MOSUNNY   62  53  72 NE15      29.70R
CONCORDIA      CLOUDY    52  48  86 N10       29.75R
SALINA         CLOUDY    62  52  69 N16       29.71R
TOPEKA         CLOUDY    53  49  86 N13       29.72R



USA.gov is the U.S. government's official web portal to all federal, state and local government web resources and services.